Stations météo

réclame
Mon MeteoGroup
Ölands Södra Udde, Suède (2644): Température de l'air & dewpoint: 12.06.2019 01:00:00 - 18.06.2019 01:00:00 (CEST)Ölands Södra Udde, Suède (2644): Vitesse du vent & gusts: 12.06.2019 01:00:00 - 18.06.2019 01:00:00 (CEST)Ölands Södra Udde, Suède (2644): Direction du vent: 12.06.2019 01:00:00 - 18.06.2019 01:00:00 (CEST)Ölands Södra Udde, Suède (2644): reduced air pressure: 12.06.2019 01:00:00 - 18.06.2019 01:00:00 (CEST)Ölands Södra Udde, Suède (2644): visibility: 12.06.2019 01:00:00 - 18.06.2019 01:00:00 (CEST)Ölands Södra Udde, Suède (2644): Quantités de précipitations: 12.06.2019 01:00:00 - 18.06.2019 01:00:00 (CEST)
Date & Time tt [°C] td [°C] ff [km/h] ff [knt] fx [km/h] fx [knt] dd ppp [hPa] vv [km] rr [mm]
18.06.2019 01:00:00 - - - - - - - - - -
18.06.2019 00:00:00 15,0 14,0 10 5 17 9 WSW 1019,8 23 0,0
17.06.2019 23:00:00 15,6 14,0 14 8 21 12 W 1019,7 39 0,0
17.06.2019 22:00:00 15,9 13,9 19 10 24 13 WSW 1019,7 38 0,0
17.06.2019 21:00:00 15,7 13,9 15 8 29 16 WSW 1019,6 29 0,0
17.06.2019 20:00:00 16,3 14,0 19 10 32 17 WSW 1019,4 30 0,0
17.06.2019 19:00:00 16,4 13,5 19 10 29 16 WSW 1019,5 32 0,0
17.06.2019 18:00:00 16,5 13,6 24 13 32 18 SW 1019,6 27 0,0
17.06.2019 17:00:00 16,8 13,9 23 12 36 19 SW 1019,7 19 0,0
17.06.2019 16:00:00 16,8 14,1 27 14 39 21 SW 1019,9 18 0,0
17.06.2019 15:00:00 17,3 13,8 25 14 38 20 SW 1020,0 23 0,0
17.06.2019 14:00:00 17,2 13,9 26 14 37 20 SW 1020,0 21 0,0
17.06.2019 13:00:00 17,2 14,3 22 12 33 18 SW 1020,0 15 0,0
17.06.2019 12:00:00 17,0 14,3 20 11 30 16 SW 1020,1 20 0,0
17.06.2019 11:00:00 16,8 14,1 21 12 30 16 SW 1020,3 19 0,0
17.06.2019 10:00:00 16,8 14,6 14 7 22 12 SW 1020,3 23 0,0
17.06.2019 09:00:00 17,1 14,4 7 4 15 8 SW 1020,1 25 0,0
17.06.2019 08:00:00 16,2 13,5 10 5 16 8 WSW 1020,2 34 0,0
17.06.2019 07:00:00 16,1 13,2 8 5 16 9 W 1019,9 29 0,0
17.06.2019 06:00:00 15,4 12,9 12 6 21 12 WNW 1019,7 33 0,0
17.06.2019 05:00:00 15,0 12,7 20 11 28 15 WNW 1019,2 39 0,0
17.06.2019 04:00:00 15,5 12,8 23 12 29 15 WNW 1018,6 50 0,0
17.06.2019 03:00:00 16,0 13,5 22 12 28 15 WNW 1018,4 50 0,0
17.06.2019 02:00:00 16,3 14,0 20 11 26 14 WNW 1018,1 50 0,0
17.06.2019 01:00:00 16,2 14,6 18 10 28 15 W 1017,4 50 0,0
17.06.2019 00:00:00 16,9 14,5 23 13 30 16 WNW 1017,2 50 0,0
16.06.2019 23:00:00 16,7 15,1 19 11 32 17 WNW 1017,1 26 0,0
16.06.2019 22:00:00 16,9 15,6 27 15 31 17 WNW 1016,7 19 0,2
16.06.2019 21:00:00 17,7 15,5 16 8 20 11 WNW 1016,1 50 0,0
16.06.2019 20:00:00 17,6 16,1 3 1 10 5 NNE 1015,8 36 0,0
16.06.2019 19:00:00 17,6 15,6 7 4 9 5 S 1015,3 29 0,0
16.06.2019 18:00:00 17,7 15,7 7 4 14 8 SSW 1015,5 28 0,0
16.06.2019 17:00:00 17,4 15,4 10 5 16 9 S 1015,4 14 0,0
16.06.2019 16:00:00 18,1 16,1 13 7 17 9 SSW 1015,8 14 0,0
16.06.2019 15:00:00 18,9 13,7 9 5 19 10 SSW 1015,6 37 0,0
16.06.2019 14:00:00 17,8 14,3 10 5 18 10 E 1015,5 30 0,0
16.06.2019 13:00:00 19,0 15,1 9 5 19 10 NNW 1015,1 36 0,0
16.06.2019 12:00:00 18,6 15,1 10 6 22 12 NNW 1014,8 42 0,0
16.06.2019 11:00:00 18,9 15,6 11 6 23 13 N 1014,2 30 0,0
16.06.2019 10:00:00 17,4 15,6 16 9 23 12 N 1014,0 29 0,0
16.06.2019 09:00:00 16,7 15,1 14 8 22 12 NNW 1013,7 21 0,0
16.06.2019 08:00:00 15,7 14,7 15 8 21 11 N 1013,3 18 0,0
16.06.2019 07:00:00 14,6 14,0 13 7 16 9 NNW 1013,1 14 0,0
16.06.2019 06:00:00 14,3 13,8 9 5 15 8 N 1012,3 10 0,0
16.06.2019 05:00:00 13,9 13,3 10 5 16 9 NE 1012,6 12 0,0
16.06.2019 04:00:00 15,2 14,2 13 7 16 8 ENE 1013,0 15 0,0
16.06.2019 03:00:00 14,8 14,0 7 4 35 19 NNE 1013,0 14 0,0
16.06.2019 02:00:00 15,5 14,4 27 15 63 34 E 1012,1 15 0,9
16.06.2019 01:00:00 15,3 14,0 54 29 62 34 ESE 1009,9 6 3,5
16.06.2019 00:00:00 15,3 14,3 44 24 52 28 ESE 1011,7 4,6 3,3
15.06.2019 23:00:00 15,6 13,8 34 19 43 23 ESE 1012,9 9 3,1
15.06.2019 22:00:00 15,4 13,6 24 13 29 15 E 1013,6 10 3,0
15.06.2019 21:00:00 15,6 13,3 24 13 33 18 ENE 1014,1 19 0,6
15.06.2019 20:00:00 16,3 11,9 23 13 42 23 NE 1014,8 50 0,0
15.06.2019 19:00:00 16,3 11,7 31 17 40 22 NE 1014,8 50 0,0
15.06.2019 18:00:00 16,7 12,8 29 16 35 19 ENE 1015,4 50 0,0
15.06.2019 17:00:00 16,6 13,5 23 13 29 15 ENE 1016,3 45 0,0
15.06.2019 16:00:00 17,2 14,1 23 12 31 17 ENE 1016,4 42 0,0
15.06.2019 15:00:00 16,9 14,4 26 14 30 16 ENE 1016,9 41 0,0
15.06.2019 14:00:00 16,8 13,9 20 11 32 17 E 1017,7 33 0,0
15.06.2019 13:00:00 18,0 14,1 27 14 32 18 ENE 1017,4 29 0,0
15.06.2019 12:00:00 17,1 14,4 22 12 26 14 E 1018,0 36 0,0
15.06.2019 11:00:00 16,9 13,8 17 9 20 11 E 1018,7 35 0,0
15.06.2019 10:00:00 16,7 13,6 14 7 21 11 ESE 1018,8 30 0,0
15.06.2019 09:00:00 16,2 12,9 18 10 23 12 ESE 1018,6 35 0,0
15.06.2019 08:00:00 15,6 13,6 16 9 20 11 ESE 1019,0 31 0,0
15.06.2019 07:00:00 14,7 13,1 16 8 19 10 E 1019,2 44 0,0
15.06.2019 06:00:00 14,5 13,0 13 7 16 9 ESE 1019,4 47 0,0
15.06.2019 05:00:00 14,5 13,0 9 5 11 6 ESE 1019,6 39 0,0
15.06.2019 04:00:00 14,0 12,6 8 4 11 6 SE 1019,8 50 0,0
15.06.2019 03:00:00 14,3 12,7 6 3 9 5 E 1020,0 50 0,0
15.06.2019 02:00:00 13,9 12,5 6 4 8 5 SE 1020,3 50 0,0
15.06.2019 01:00:00 14,2 12,9 6 3 9 5 E 1020,1 49 0,0
15.06.2019 00:00:00 14,0 13,2 4 2 5 3 ESE 1020,3 25 0,0
14.06.2019 23:00:00 14,3 13,0 0 0 12 7 N 1020,2 47 0,0
14.06.2019 22:00:00 15,5 12,1 9 5 12 7 SW 1020,3 50 0,0
14.06.2019 21:00:00 15,2 12,7 7 4 13 7 WSW 1020,4 48 0,0
14.06.2019 20:00:00 15,7 12,8 9 5 16 8 SSW 1020,3 50 0,0
14.06.2019 19:00:00 16,4 12,9 9 5 19 11 SW 1020,5 40 0,0
14.06.2019 18:00:00 16,5 13,2 13 7 23 13 SSW 1020,5 42 0,0
14.06.2019 17:00:00 16,7 13,6 16 9 26 14 SSW 1020,4 45 0,0
14.06.2019 16:00:00 17,3 13,6 12 6 22 12 SW 1020,5 35 0,0
14.06.2019 15:00:00 17,2 13,9 12 7 23 12 SW 1020,8 35 0,0
14.06.2019 14:00:00 17,8 13,5 16 8 22 12 SW 1020,7 37 0,0
14.06.2019 13:00:00 18,1 14,4 12 7 21 11 SW 1020,8 30 0,0
14.06.2019 12:00:00 17,3 14,4 11 6 17 9 SW 1020,5 35 0,0
14.06.2019 11:00:00 17,6 14,7 8 4 10 5 SSW 1020,0 27 0,0
14.06.2019 10:00:00 18,8 13,9 4 2 10 5 SW 1019,5 24 0,0
14.06.2019 09:00:00 18,6 12,8 7 4 11 6 NNW 1018,6 35 0,0
14.06.2019 08:00:00 15,5 13,5 9 5 13 7 NW 1017,9 27 0,0
14.06.2019 07:00:00 15,3 13,3 9 5 12 7 WNW 1018,0 30 0,0
14.06.2019 06:00:00 14,5 12,9 12 6 24 13 W 1018,5 29 0,0
14.06.2019 05:00:00 14,4 12,4 20 11 37 20 W 1018,3 22 0,0
14.06.2019 04:00:00 13,5 12,6 9 5 11 6 WNW 1017,3 42 0,0
14.06.2019 03:00:00 13,8 12,4 9 5 10 5 NW 1016,5 50 0,0
14.06.2019 02:00:00 14,5 12,2 2 1 11 6 N 1016,6 50 0,0
14.06.2019 01:00:00 14,2 12,6 8 4 11 6 NNW 1016,3 47 0,0
14.06.2019 00:00:00 14,1 12,8 7 4 18 10 W 1016,0 36 0,0
13.06.2019 23:00:00 14,0 12,7 14 7 19 10 WSW 1015,7 24 0,0
13.06.2019 22:00:00 13,9 12,6 11 6 21 11 WSW 1015,4 16 0,0
13.06.2019 21:00:00 14,6 12,6 16 9 24 13 WSW 1015,5 18 0,0
13.06.2019 20:00:00 15,4 12,7 14 8 24 13 WSW 1014,9 24 0,0
13.06.2019 19:00:00 15,2 12,7 16 9 26 14 SW 1014,5 16 0,0
13.06.2019 18:00:00 15,2 13,0 14 7 28 15 SW 1014,5 11 0,0
13.06.2019 17:00:00 15,9 13,4 22 12 29 16 SW 1014,2 10 0,0
13.06.2019 16:00:00 15,1 13,6 16 9 25 14 SW 1013,7 7 0,0
13.06.2019 15:00:00 16,3 14,3 19 10 27 15 SW 1013,5 9 0,0
13.06.2019 14:00:00 16,1 14,3 16 8 28 15 SW 1013,7 9 0,0
13.06.2019 13:00:00 16,9 15,2 15 8 26 14 WSW 1013,2 8 0,0
13.06.2019 12:00:00 14,9 14,1 20 11 29 16 SW 1013,2 7 0,0
13.06.2019 11:00:00 15,6 14,3 13 7 20 11 SSW 1012,5 9 0,0
13.06.2019 10:00:00 15,3 14,3 11 6 19 10 SSW 1011,8 8 0,0
13.06.2019 09:00:00 15,3 14,5 11 6 26 14 SW 1011,3 8 0,0
13.06.2019 08:00:00 14,3 13,8 22 12 30 16 W 1010,3 7 0,0
13.06.2019 07:00:00 13,6 13,1 15 8 25 13 W 1009,6 4,2 2,3
13.06.2019 06:00:00 15,2 14,1 16 9 59 32 ESE 1010,7 - -
13.06.2019 05:00:00 13,4 12,6 19 10 60 32 NW 1008,7 8 0,3
13.06.2019 04:00:00 13,9 13,3 22 12 57 31 WNW 1009,4 9 0,0
13.06.2019 03:00:00 13,9 13,6 27 15 37 20 N 1008,0 9 0,0
13.06.2019 02:00:00 13,0 12,5 27 14 67 36 NNW 1009,5 8 0,0
13.06.2019 01:00:00 14,9 13,9 20 11 34 18 NE 1008,7 11 0,0
13.06.2019 00:00:00 14,6 13,6 21 11 37 20 NNE 1009,1 12 0,0
12.06.2019 23:00:00 15,0 14,0 30 16 38 21 NE 1009,6 13 0,0
12.06.2019 22:00:00 15,3 14,0 27 15 41 22 NNE 1010,4 15 0,0
12.06.2019 21:00:00 15,5 14,0 27 15 42 23 NNE 1010,6 17 0,0
12.06.2019 20:00:00 16,1 14,6 29 16 47 25 NNE 1010,3 15 0,0
12.06.2019 19:00:00 15,9 14,4 37 20 49 26 NE 1010,6 12 0,0
12.06.2019 18:00:00 15,3 14,3 35 19 54 29 NE 1011,3 9 0,0
12.06.2019 17:00:00 14,6 14,0 37 20 50 27 NNE 1012,0 7 0,0
12.06.2019 16:00:00 14,7 14,2 42 23 54 29 NE 1012,5 3,2 0,0
12.06.2019 15:00:00 14,4 14,2 42 23 55 30 NE 1012,3 1,9 0,0
12.06.2019 14:00:00 14,3 14,1 45 24 59 32 ENE 1012,6 1,2 0,0
12.06.2019 13:00:00 14,6 13,8 48 26 63 34 ENE 1012,6 6 0,0
12.06.2019 12:00:00 14,5 13,7 49 26 60 33 ENE 1013,4 12 0,0
12.06.2019 11:00:00 14,4 13,4 41 22 65 35 NE 1013,8 11 0,0
12.06.2019 10:00:00 15,1 14,0 51 28 66 36 NE 1013,9 17 0,0
12.06.2019 09:00:00 15,4 14,8 41 22 60 33 NE 1014,6 16 1,7
12.06.2019 08:00:00 14,5 14,0 35 19 64 34 NNE 1014,6 14 0,0
12.06.2019 07:00:00 14,3 14,1 47 26 64 35 NE 1013,5 14 0,0
12.06.2019 06:00:00 13,7 13,5 47 25 61 33 NE 1014,0 3,1 0,0
12.06.2019 05:00:00 13,1 12,9 39 21 54 29 NE 1014,0 0,8 0,0
12.06.2019 04:00:00 12,9 12,7 34 18 51 28 NNE 1014,6 0,5 0,0
12.06.2019 03:00:00 12,8 12,6 30 16 52 28 NNE 1015,1 0,6 0,0
12.06.2019 02:00:00 13,1 12,9 38 20 53 29 NE 1015,0 0,5 0,0
12.06.2019 01:00:00 13,4 13,2 35 19 56 30 NNE 1015,2 0,7 0,0

tt = Température de l'air
td = dewpoint
ff = Vitesse du vent
fx = gusts
dd = Direction du vent
ppp = reduced air pressure
vv = visibility
rr = Quantités de précipitations

stations d'obs. à proximité